RH
46 41 35 30 32 28 30 34 39 36 35 31 27 22 21 27 36 37 36 38 39 39 41 43 43 41 41 44 45 46 43 41 41 44 44 48 51 50 48 45 48 53 52 53 46 44 43
55 55 49 41 34 37 29 29 35 42 37 37 27 25 23 27 36 38 37 41 44 47 48 48 47 48 49 51 38 38 39 40 40 41 39 43 45 48 50 46 48 47 49 51 50 45 46
46 55 54 54 41 36 41 34 31 38 36 39 38 28 25 27 35 39 38 44 50 50 51 53 51 54 56 49 45 47 48 48 47 48 45 43 44 48 54 51 45 47 47 46 41 46 47
41 43 56 55 53 45 39 40 40 37 38 37 41 36 28 27 34 38 42 43 47 52 54 55 55 54 57 54 49 52 51 51 52 51 50 44 49 48 52 54 52 52 52 53 39 45 45
26 33 48 55 61 55 45 44 42 41 46 45 38 43 33 28 34 38 38 39 41 47 53 54 55 54 54 52 52 50 55 54 54 54 53 52 55 54 52 56 61 59 61 55 49 48 57
25 23 28 40 48 67 60 49 53 42 42 54 51 44 43 35 33 37 36 35 36 43 49 49 52 59 58 58 57 52 54 59 60 60 60 59 57 60 65 65 61 60 59 52 53 40 60
30 28 25 23 40 55 66 56 55 51 37 44 60 58 49 43 35 39 41 40 43 47 50 44 46 45 49 57 60 64 61 64 66 66 67 64 69 68 61 61 61 63 62 57 46 48 56
27 27 27 26 25 37 52 63 58 62 44 43 53 63 59 54 41 42 47 47 44 46 46 45 47 52 53 61 63 69 71 70 70 73 76 73 72 66 65 61 63 72 71 59 49 50 63
28 32 32 32 27 24 43 64 80 71 61 47 54 61 65 61 52 45 52 51 52 54 59 53 50 54 57 66 71 78 79 77 76 79 77 75 68 70 73 72 72 68 69 60 58 61 63
28 31 34 33 36 34 36 53 83 78 75 62 61 67 66 69 61 51 54 56 56 64 66 54 55 59 65 71 72 79 80 81 81 82 84 76 72 73 76 73 74 80 59 59 64 78 79
36 34 37 40 44 38 34 47 59 74 91 90 68 71 71 68 63 56 54 59 68 70 70 54 59 62 61 70 75 76 76 83 86 86 85 82 79 75 76 61 76 62 72 67 61 79 86
33 38 50 49 51 47 49 44 77 94 97 98 88 74 75 73 69 65 64 66 70 73 69 61 63 63 67 78 80 78 80 83 88 89 84 78 76 76 77 82 85 74 87 79 81 89 94
41 50 65 64 63 52 53 45 79 92 98 98 96 87 78 74 75 76 68 66 76 74 54 67 68 67 69 82 84 86 89 89 88 87 85 76 69 82 84 87 93 96 97 96 96 96 82
48 62 72 70 67 74 69 63 72 96 98 97 99 97 79 71 77 76 71 74 75 54 58 71 74 70 82 84 87 89 89 92 81 80 82 79 76 73 77 86 93 98 90 88 87 94 95
46 68 81 84 82 85 91 84 64 72 98 94 98 89 94 67 83 78 74 76 62 61 69 78 79 82 91 90 92 92 90 86 82 76 80 82 87 87 87 89 95 96 86 78 94 82 82
58 71 85 88 86 98 99 99 76 81 93 94 98 87 90 75 81 82 79 69 63 65 78 83 83 87 95 96 97 97 89 73 66 73 71 78 83 88 95 94 92 94 94 97 97 89 80
64 67 77 88 85 93 98 98 86 88 98 99 95 93 97 88 92 84 73 68 66 72 81 82 89 96 96 98 97 97 82 68 61 63 67 86 92 81 90 96 87 95 95 98 93 70 67
57 68 74 81 82 85 97 98 99 99 98 98 95 98 93 98 85 77 67 69 69 78 88 80 96 97 97 97 97 97 80 61 52 66 75 84 94 92 97 93 91 95 96 94 78 64 63
56 67 73 79 83 93 98 98 98 99 98 98 95 95 98 99 87 72 69 72 74 87 87 90 97 97 97 97 99 87 72 55 68 68 75 85 97 97 98 96 93 95 93 88 77 71 65
59 61 70 78 88 97 97 97 98 98 97 98 96 96 99 98 75 71 76 76 83 89 85 97 97 97 98 97 94 79 60 54 61 68 70 82 95 98 98 98 89 94 88 83 82 78 71
49 55 66 75 92 96 98 96 97 98 99 97 92 96 83 82 81 73 78 82 91 81 92 97 97 98 97 98 87 73 64 57 60 65 70 78 98 96 97 92 86 81 78 76 77 75 70
46 43 57 69 87 97 97 97 98 99 99 98 92 88 76 83 78 81 85 92 92 83 97 98 98 98 98 96 62 61 60 57 63 70 80 84 93 95 95 92 84 84 79 76 70 71 71
44 36 47 58 82 93 97 98 98 97 98 99 91 73 88 90 77 78 84 95 79 90 94 96 97 97 98 85 60 60 62 58 60 64 75 83 86 96 88 91 89 82 74 71 67 67 67
55 39 36 50 70 86 92 96 97 98 99 98 89 72 86 92 80 78 91 92 86 90 97 95 97 96 86 68 70 66 62 52 61 70 67 75 79 91 90 76 82 62 59 66 68 65 65
62 47 32 44 65 87 92 97 98 99 97 91 88 75 89 84 72 81 93 88 88 94 95 97 95 88 78 68 69 69 70 66 74 77 75 74 85 88 91 84 69 59 59 58 59 59 58
65 51 37 41 67 87 91 95 96 99 97 93 86 78 84 79 74 93 92 90 87 92 98 97 87 76 69 62 66 77 83 70 82 84 78 74 75 80 91 87 80 66 61 59 55 60 54
61 54 38 46 64 76 91 89 94 98 96 90 81 77 82 79 81 96 91 92 84 93 98 97 82 76 75 69 70 74 86 68 77 78 84 83 78 85 83 88 73 63 62 61 63 61 57
56 55 35 42 61 76 90 89 95 99 98 93 78 80 82 79 84 96 90 84 86 97 98 97 85 81 87 82 79 82 78 73 68 70 76 89 90 86 85 84 82 62 62 63 63 60 58
56 55 35 47 65 85 90 91 96 99 98 89 80 82 82 80 91 98 93 75 89 97 98 97 91 81 90 95 94 88 82 80 69 73 68 78 74 77 79 76 70 67 67 66 65 63 64